Weather in Visokoye

Belarus     52°22′01″N   23°22′40″E
temp.,
°C
wind,
m/s
gust,
m/s
humid.,
%
clouds,
%
prec.,
mm/h
press.,
hPa
HPBL,
m
25 june, sat
sat2500:00+18e466933 0.0 101674
03:00+15ese358851 0.0 101683
06:00+15ese348599 0.0 101680
09:00+21ese356724 0.0 1017368
12:00+25ese445137 0.0 10171431
15:00+27e564430 0.0 10162135
18:00+26e675299 0.0 1016892
21:00+22e377260 0.0 1016126
26 june, sun
sun2600:00+21e3771100 0.0 1017178
03:00+18ese35825 0.0 101888
06:00+17ese34851 0.0 101974
09:00+22e346419 0.0 1019351
12:00+26e46490 0.0 10191681
15:00+28e5641100 0.0 10192498
18:00+27e675099 0.0 10191479
21:00+23ese3665100 0.0 1020127
27 june, mon
mon2700:00+20ese357529 0.0 102073
03:00+18e338467 0.0 102134
06:00+17e348469 0.0 102186
09:00+23ese586798 0.0 1021524
12:00+27se675250 0.0 10211843
15:00+26se3658100 0.0 1020473
18:00+26s3556100 0.0 1020707
21:00+23ese3670100 0.0 1020125
28 june, tue
tue2800:00+20ese367489 0.0 102087
03:00+19ese3777100 0.0 1020115
06:00+18ese3880100 0.0 1021152
09:00+23ese476495 0.0 1021381
12:00+28ese574395 0.0 10201807
15:00+31se563446 0.0 10192738
18:00+28ssw3545100 0.0 1019211
21:00+24sse335794 0.0 101932
29 june, wed
wed2900:00+21se116498 0.0 102011
03:00+20s2267100 0.0 102011
06:00+20sse227277 0.0 102014
09:00+25se336497 0.0 1020333
12:00+29ese344744 0.0 10191636
15:00+31ese4538100 0.0 10182831
18:00+28ese365374 0.0 1017384
21:00+26ene346594 0.0 101756